Location: Campo Alegre
(10.4289°N, 66.6519°W)
Time: 23:05:46
(UTC+00:00)

Cosmos 494 Rocket - Pass Details

Date: 29 May 2024
Orbit: 739 x 768 km, 74.1° (Epoch: 21 June)

Event Time Altitude Azimuth Distance (km) Brightness Sun altitude
Rises 23:19:57 0° 193° (SSW) 3,169 7.1 -8.8°
Reaches altitude 10° 23:22:18 10° 193° (SSW) 2,244 6.3 -9.3°
Maximum altitude 23:27:23 86° 282° (WNW) 743 4.0 -10.4°
Drops below altitude 10° 23:32:27 10° 12° (NNE) 2,240 6.6 -11.6°
Sets 23:34:48 0° 12° (NNE) 3,164 7.4 -12.1°
